Time,TemperatureF,DewpointF,PressureIn,WindDirection,WindDirectionDegrees,WindSpeedMPH,WindSpeedGustMPH,Humidity,HourlyPrecipIn,Conditions,Clouds,dailyrainin,SolarRadiationWatts/m^2,SoftwareType,DateUTC
2013-01-04 00:27:00,21.5,11.0,30.05,WSW,241,2.0,5.0,65,0.00,,,0.00,0,weatherlink.com 1.10,2013-01-04 05:27:00,
2013-01-04 00:42:00,21.4,12.0,30.05,West,266,3.0,4.0,66,0.00,,,0.00,0,weatherlink.com 1.10,2013-01-04 05:42:00,
2013-01-04 00:57:00,21.7,13.0,30.04,SW,229,0.0,4.0,68,0.00,,,0.00,0,weatherlink.com 1.10,2013-01-04 05:57:00,
2013-01-04 01:12:00,21.8,13.0,30.04,SW,232,2.0,3.0,68,0.00,,,0.00,0,weatherlink.com 1.10,2013-01-04 06:12:00,
2013-01-04 01:27:00,21.6,12.0,30.04,West,265,1.0,6.0,67,0.00,,,0.00,0,weatherlink.com 1.10,2013-01-04 06:27:00,
2013-01-04 01:42:00,21.3,12.0,30.04,WSW,250,1.0,3.0,68,0.00,,,0.00,0,weatherlink.com 1.10,2013-01-04 06:42:00,
2013-01-04 01:57:00,21.3,13.0,30.05,WSW,253,1.0,2.0,69,0.00,,,0.00,0,weatherlink.com 1.10,2013-01-04 06:57:00,
2013-01-04 02:12:00,21.3,13.0,30.05,WSW,255,1.0,2.0,70,0.00,,,0.00,0,weatherlink.com 1.10,2013-01-04 07:12:00,
2013-01-04 02:27:00,21.3,13.0,30.04,WSW,255,1.0,2.0,70,0.00,,,0.00,0,weatherlink.com 1.10,2013-01-04 07:27:00,
2013-01-04 02:42:00,22.2,14.0,30.04,WSW,255,1.0,2.0,72,0.00,,,0.00,0,weatherlink.com 1.10,2013-01-04 07:42:00,
2013-01-04 02:58:00,21.7,14.0,30.04,WSW,255,1.0,3.0,72,0.00,,,0.00,0,weatherlink.com 1.10,2013-01-04 07:58:00,
2013-01-04 03:13:00,21.6,14.0,30.03,WSW,255,0.0,2.0,72,0.00,,,0.00,0,weatherlink.com 1.10,2013-01-04 08:13:00,
2013-01-04 03:28:00,21.7,14.0,30.03,WSW,248,2.0,4.0,72,0.00,,,0.00,0,weatherlink.com 1.10,2013-01-04 08:28:00,
2013-01-04 03:43:00,21.7,14.0,30.02,West,271,2.0,5.0,72,0.00,,,0.00,0,weatherlink.com 1.10,2013-01-04 08:43:00,
2013-01-04 03:58:00,21.7,14.0,30.02,West,271,1.0,2.0,73,0.00,,,0.00,0,weatherlink.com 1.10,2013-01-04 08:58:00,
2013-01-04 04:13:00,21.2,14.0,30.01,West,271,0.0,1.0,75,0.00,,,0.00,0,weatherlink.com 1.10,2013-01-04 09:13:00,
2013-01-04 04:28:00,21.2,14.0,30.01,WSW,250,0.0,3.0,75,0.00,,,0.00,0,weatherlink.com 1.10,2013-01-04 09:28:00,
2013-01-04 04:43:00,21.8,15.0,30.01,WSW,250,2.0,2.0,75,0.00,,,0.00,0,weatherlink.com 1.10,2013-01-04 09:43:00,
2013-01-04 04:58:00,22.2,15.0,30.02,WSW,242,1.0,3.0,74,0.00,,,0.00,0,weatherlink.com 1.10,2013-01-04 09:58:00,
2013-01-04 05:13:00,22.2,15.0,30.02,WSW,250,1.0,3.0,75,0.00,,,0.00,0,weatherlink.com 1.10,2013-01-04 10:13:00,
2013-01-04 05:28:00,22.4,16.0,30.02,WSW,246,2.0,4.0,76,0.00,,,0.00,0,weatherlink.com 1.10,2013-01-04 10:28:00,
2013-01-04 05:43:00,22.6,16.0,30.02,SSW,209,3.0,4.0,76,0.00,,,0.00,0,weatherlink.com 1.10,2013-01-04 10:43:00,
2013-01-04 05:58:00,22.7,17.0,30.02,WNW,282,3.0,7.0,77,0.00,,,0.00,0,weatherlink.com 1.10,2013-01-04 10:58:00,
2013-01-04 06:13:00,22.7,17.0,30.02,SW,232,2.0,6.0,77,0.00,,,0.00,0,weatherlink.com 1.10,2013-01-04 11:13:00,
2013-01-04 06:28:00,22.7,17.0,30.02,West,272,4.0,7.0,77,0.00,,,0.00,0,weatherlink.com 1.10,2013-01-04 11:28:00,
2013-01-04 06:43:00,22.8,17.0,30.03,West,272,2.0,6.0,78,0.00,,,0.00,0,weatherlink.com 1.10,2013-01-04 11:43:00,
2013-01-04 06:58:00,23.0,17.0,30.03,West,279,1.0,5.0,79,0.00,,,0.00,0,weatherlink.com 1.10,2013-01-04 11:58:00,
2013-01-04 07:13:00,23.7,18.0,30.03,WSW,241,4.0,8.0,79,0.00,,,0.00,5,weatherlink.com 1.10,2013-01-04 12:13:00,
2013-01-04 07:28:00,24.4,18.0,30.03,West,271,3.0,10.0,78,0.00,,,0.00,21,weatherlink.com 1.10,2013-01-04 12:28:00,
2013-01-04 07:43:00,24.8,19.0,30.03,WSW,246,6.0,9.0,78,0.00,,,0.00,47,weatherlink.com 1.10,2013-01-04 12:43:00,
2013-01-04 07:58:00,25.9,20.0,30.04,West,266,11.0,11.0,77,0.00,,,0.00,102,weatherlink.com 1.10,2013-01-04 12:58:00,
2013-01-04 08:13:00,27.0,20.0,30.03,West,274,6.0,9.0,75,0.00,,,0.00,114,weatherlink.com 1.10,2013-01-04 13:13:00,
2013-01-04 08:28:00,27.8,21.0,30.03,West,267,6.0,11.0,75,0.00,,,0.00,151,weatherlink.com 1.10,2013-01-04 13:28:00,
2013-01-04 08:43:00,28.7,21.0,30.04,WSW,250,7.0,11.0,74,0.00,,,0.00,91,weatherlink.com 1.10,2013-01-04 13:43:00,
2013-01-04 08:58:00,29.6,22.0,30.03,WSW,254,6.0,10.0,72,0.00,,,0.00,54,weatherlink.com 1.10,2013-01-04 13:58:00,
2013-01-04 09:13:00,30.2,22.0,30.02,WSW,255,10.0,11.0,71,0.00,,,0.00,146,weatherlink.com 1.10,2013-01-04 14:13:00,
2013-01-04 09:28:00,31.0,22.0,30.02,SW,231,5.0,10.0,70,0.00,,,0.00,199,weatherlink.com 1.10,2013-01-04 14:28:00,
2013-01-04 09:43:00,32.3,23.0,30.02,WSW,248,6.0,12.0,68,0.00,,,0.00,406,weatherlink.com 1.10,2013-01-04 14:43:00,
2013-01-04 09:58:00,33.4,23.0,30.02,West,263,7.0,15.0,65,0.00,,,0.00,299,weatherlink.com 1.10,2013-01-04 14:58:00,
2013-01-04 10:13:00,34.4,23.0,30.01,SW,232,7.0,15.0,63,0.00,,,0.00,352,weatherlink.com 1.10,2013-01-04 15:13:00,
2013-01-04 10:29:00,34.9,22.0,30.00,West,274,8.0,17.0,60,0.00,,,0.00,336,weatherlink.com 1.10,2013-01-04 15:29:00,
2013-01-04 10:44:00,35.2,22.0,30.00,WSW,251,7.0,13.0,60,0.00,,,0.00,267,weatherlink.com 1.10,2013-01-04 15:44:00,
2013-01-04 10:59:00,35.5,22.0,29.98,WSW,253,7.0,13.0,59,0.00,,,0.00,292,weatherlink.com 1.10,2013-01-04 15:59:00,
2013-01-04 11:14:00,36.4,23.0,29.97,West,261,6.0,13.0,58,0.00,,,0.00,496,weatherlink.com 1.10,2013-01-04 16:14:00,
2013-01-04 11:29:00,36.9,22.0,29.96,West,267,4.0,16.0,55,0.00,,,0.00,601,weatherlink.com 1.10,2013-01-04 16:29:00,
2013-01-04 11:44:00,36.6,22.0,29.95,West,264,7.0,21.0,55,0.00,,,0.00,406,weatherlink.com 1.10,2013-01-04 16:44:00,
2013-01-04 11:59:00,37.6,23.0,29.93,WSW,251,15.0,18.0,55,0.00,,,0.00,512,weatherlink.com 1.10,2013-01-04 16:59:00,
2013-01-04 12:14:00,37.6,22.0,29.92,WSW,257,10.0,21.0,54,0.00,,,0.00,425,weatherlink.com 1.10,2013-01-04 17:14:00,
2013-01-04 12:29:00,37.5,23.0,29.92,SW,236,14.0,19.0,55,0.00,,,0.00,578,weatherlink.com 1.10,2013-01-04 17:29:00,
2013-01-04 12:44:00,38.7,23.0,29.90,West,266,14.0,19.0,54,0.00,,,0.00,612,weatherlink.com 1.10,2013-01-04 17:44:00,
2013-01-04 12:59:00,38.3,22.0,29.89,WSW,245,15.0,20.0,53,0.00,,,0.00,357,weatherlink.com 1.10,2013-01-04 17:59:00,
2013-01-04 13:14:00,39.1,23.0,29.89,WSW,243,5.0,19.0,53,0.00,,,0.00,452,weatherlink.com 1.10,2013-01-04 18:14:00,
2013-01-04 13:29:00,39.3,23.0,29.89,West,279,8.0,19.0,52,0.00,,,0.00,534,weatherlink.com 1.10,2013-01-04 18:29:00,
2013-01-04 13:44:00,39.5,23.0,29.88,WNW,301,6.0,15.0,52,0.00,,,0.00,213,weatherlink.com 1.10,2013-01-04 18:44:00,
2013-01-04 13:59:00,38.6,23.0,29.88,West,271,8.0,20.0,53,0.00,,,0.00,125,weatherlink.com 1.10,2013-01-04 18:59:00,
2013-01-04 14:14:00,38.4,23.0,29.88,SW,218,6.0,12.0,55,0.00,,,0.00,90,weatherlink.com 1.10,2013-01-04 19:14:00,
2013-01-04 14:29:00,38.3,23.0,29.88,WSW,257,6.0,13.0,55,0.00,,,0.00,63,weatherlink.com 1.10,2013-01-04 19:29:00,
2013-01-04 14:44:00,38.3,24.0,29.88,West,267,5.0,13.0,56,0.00,,,0.00,53,weatherlink.com 1.10,2013-01-04 19:44:00,
2013-01-04 14:59:00,38.2,24.0,29.88,WSW,253,4.0,13.0,57,0.00,,,0.00,63,weatherlink.com 1.10,2013-01-04 19:59:00,
2013-01-04 15:14:00,38.0,24.0,29.89,West,265,3.0,14.0,57,0.00,,,0.00,51,weatherlink.com 1.10,2013-01-04 20:14:00,
2013-01-04 15:29:00,37.8,24.0,29.88,WSW,247,4.0,16.0,59,0.00,,,0.00,37,weatherlink.com 1.10,2013-01-04 20:29:00,
2013-01-04 15:44:00,37.7,24.0,29.89,WSW,250,7.0,14.0,59,0.00,,,0.00,26,weatherlink.com 1.10,2013-01-04 20:44:00,
2013-01-04 15:59:00,37.6,25.0,29.89,West,265,6.0,13.0,60,0.00,,,0.00,16,weatherlink.com 1.10,2013-01-04 20:59:00,
2013-01-04 16:14:00,37.4,24.0,29.89,WSW,253,5.0,10.0,60,0.00,,,0.00,11,weatherlink.com 1.10,2013-01-04 21:14:00,
2013-01-04 16:44:00,37.1,25.0,29.89,West,279,10.0,10.0,61,0.00,,,0.00,0,weatherlink.com 1.10,2013-01-04 21:44:00,
2013-01-04 16:59:00,37.1,25.0,29.89,WSW,244,6.0,10.0,61,0.00,,,0.00,0,weatherlink.com 1.10,2013-01-04 21:59:00,
2013-01-04 17:14:00,37.0,25.0,29.89,West,273,4.0,7.0,62,0.00,,,0.00,0,weatherlink.com 1.10,2013-01-04 22:14:00,
2013-01-04 17:29:00,37.0,25.0,29.89,SW,223,7.0,10.0,61,0.00,,,0.00,0,weatherlink.com 1.10,2013-01-04 22:29:00,
2013-01-04 17:44:00,36.9,24.0,29.89,West,263,4.0,11.0,61,0.00,,,0.00,0,weatherlink.com 1.10,2013-01-04 22:44:00,
2013-01-04 17:59:00,36.9,25.0,29.89,West,259,4.0,10.0,62,0.00,,,0.00,0,weatherlink.com 1.10,2013-01-04 22:59:00,
2013-01-04 18:15:00,36.8,25.0,29.90,WSW,255,4.0,9.0,62,0.00,,,0.00,0,weatherlink.com 1.10,2013-01-04 23:15:00,
2013-01-04 18:30:00,36.7,25.0,29.90,SSW,211,3.0,8.0,62,0.00,,,0.00,0,weatherlink.com 1.10,2013-01-04 23:30:00,
2013-01-04 18:44:00,36.6,25.0,29.91,West,275,4.0,11.0,62,0.00,,,0.00,0,weatherlink.com 1.10,2013-01-04 23:44:00,
2013-01-04 18:59:00,36.4,24.0,29.90,WSW,245,5.0,8.0,62,0.00,,,0.00,0,weatherlink.com 1.10,2013-01-04 23:59:00,
2013-01-04 19:15:00,36.2,25.0,29.91,West,259,5.0,9.0,63,0.00,,,0.00,0,weatherlink.com 1.10,2013-01-05 00:15:00,
2013-01-04 19:30:00,35.9,24.0,29.91,WSW,238,5.0,9.0,63,0.00,,,0.00,0,weatherlink.com 1.10,2013-01-05 00:30:00,
2013-01-04 19:45:00,35.7,24.0,29.91,SW,225,5.0,9.0,63,0.00,,,0.00,0,weatherlink.com 1.10,2013-01-05 00:45:00,
2013-01-04 19:59:00,35.4,24.0,29.91,WSW,252,3.0,6.0,64,0.00,,,0.00,0,weatherlink.com 1.10,2013-01-05 00:59:00,
2013-01-04 20:15:00,35.0,24.0,29.91,West,267,4.0,5.0,65,0.00,,,0.00,0,weatherlink.com 1.10,2013-01-05 01:15:00,
2013-01-04 20:30:00,34.8,24.0,29.91,WSW,258,2.0,6.0,65,0.00,,,0.00,0,weatherlink.com 1.10,2013-01-05 01:30:00,
2013-01-04 20:45:00,34.5,24.0,29.91,WSW,255,1.0,5.0,66,0.00,,,0.00,0,weatherlink.com 1.10,2013-01-05 01:45:00,
2013-01-04 21:00:00,34.1,24.0,29.91,WSW,240,3.0,6.0,66,0.00,,,0.00,0,weatherlink.com 1.10,2013-01-05 02:00:00,
2013-01-04 21:15:00,33.9,24.0,29.91,SW,222,3.0,6.0,67,0.00,,,0.00,0,weatherlink.com 1.10,2013-01-05 02:15:00,
2013-01-04 21:29:00,33.7,24.0,29.92,SW,229,4.0,5.0,67,0.00,,,0.00,0,weatherlink.com 1.10,2013-01-05 02:29:00,
2013-01-04 21:45:00,33.5,24.0,29.91,West,260,1.0,6.0,67,0.00,,,0.00,0,weatherlink.com 1.10,2013-01-05 02:45:00,
2013-01-04 22:00:00,33.4,23.0,29.92,West,269,2.0,7.0,66,0.00,,,0.00,0,weatherlink.com 1.10,2013-01-05 03:00:00,
2013-01-04 22:15:00,33.3,23.0,29.92,SW,221,3.0,5.0,67,0.00,,,0.00,0,weatherlink.com 1.10,2013-01-05 03:15:00,
2013-01-04 22:30:00,33.3,23.0,29.93,SW,220,2.0,7.0,67,0.00,,,0.00,0,weatherlink.com 1.10,2013-01-05 03:30:00,
2013-01-04 22:45:00,33.1,23.0,29.92,SW,222,4.0,6.0,67,0.00,,,0.00,0,weatherlink.com 1.10,2013-01-05 03:45:00,
2013-01-04 23:00:00,33.0,23.0,29.92,WSW,242,4.0,5.0,67,0.00,,,0.00,0,weatherlink.com 1.10,2013-01-05 04:00:00,
2013-01-04 23:15:00,33.1,23.0,29.92,SW,222,3.0,7.0,67,0.00,,,0.00,0,weatherlink.com 1.10,2013-01-05 04:15:00,
2013-01-04 23:30:00,33.0,23.0,29.91,SW,236,4.0,9.0,66,0.00,,,0.00,0,weatherlink.com 1.10,2013-01-05 04:30:00,
2013-01-04 23:45:00,32.7,22.0,29.91,WSW,255,4.0,9.0,66,0.00,,,0.00,0,weatherlink.com 1.10,2013-01-05 04:45:00,